When you browse on this site, cookies collect data to enhance your experience and personalize the content and advertising you see.
Visit our Privacy Policy to learn more. By continuing to use the site, you agree to this use of cookies and data.

Stündliche Wetter Georgetown

Heute, 13 August, Donnerstag

Zeit Temperatur Niederschläge Wind Luftdruck Luftfeuchtigkeit
00:00 +27°C° 0.3 mm 2 m/S 757 mmHg 89%
01:00 +27°C° 0.3 mm 2 m/S 757 mmHg 90%
02:00 +26°C° 0.3 mm 2 m/S 756 mmHg 92%
03:00 +26°C° 0.2 mm 2 m/S 756 mmHg 92%
04:00 +26°C° 0.2 mm 2 m/S 756 mmHg 92%
05:00 +26°C° 0.2 mm 1 m/S 756 mmHg 92%
06:00 +27°C° 0.2 mm 1 m/S 757 mmHg 89%
07:00 +29°C° 0.2 mm 1 m/S 757 mmHg 86%
08:00 +30°C° 0.2 mm 1 m/S 757 mmHg 84%
09:00 +31°C° 0.1 mm 2 m/S 757 mmHg 74%
10:00 +34°C° 0.1 mm 2 m/S 757 mmHg 65%
11:00 +35°C° 0.1 mm 2 m/S 757 mmHg 55%
12:00 +35°C° 0.3 mm 2 m/S 757 mmHg 58%
13:00 +34°C° 0.3 mm 2 m/S 756 mmHg 61%
14:00 +34°C° 0.3 mm 3 m/S 756 mmHg 64%
15:00 +33°C° 0.2 mm 3 m/S 756 mmHg 66%
16:00 +33°C° 0.2 mm 3 m/S 755 mmHg 68%
17:00 +31°C° 0.2 mm 3 m/S 755 mmHg 71%
18:00 +30°C° 0 mm 3 m/S 755 mmHg 76%
19:00 +29°C° 0 mm 2 m/S 756 mmHg 81%
20:00 +27°C° 0 mm 2 m/S 756 mmHg 87%
21:00 +27°C° 0.3 mm 2 m/S 757 mmHg 89%
22:00 +27°C° 0.3 mm 2 m/S 757 mmHg 90%
23:00 +27°C° 0.3 mm 2 m/S 757 mmHg 92%

Morgen, 14 August, Freitag

Zeit Temperatur Niederschläge Wind Luftdruck Luftfeuchtigkeit
00:00 +27°C° 0.4 mm 2 m/S 757 mmHg 92%
01:00 +27°C° 0.4 mm 2 m/S 756 mmHg 92%
02:00 +26°C° 0.4 mm 2 m/S 756 mmHg 93%
03:00 +26°C° 0.2 mm 2 m/S 756 mmHg 93%
04:00 +26°C° 0.2 mm 2 m/S 755 mmHg 93%
05:00 +26°C° 0.2 mm 2 m/S 755 mmHg 93%
06:00 +27°C° 0.3 mm 2 m/S 756 mmHg 90%
07:00 +28°C° 0.3 mm 2 m/S 756 mmHg 87%
08:00 +29°C° 0.3 mm 2 m/S 757 mmHg 85%
09:00 +30°C° 0.4 mm 3 m/S 757 mmHg 81%
10:00 +31°C° 0.4 mm 3 m/S 757 mmHg 78%
11:00 +33°C° 0.4 mm 3 m/S 757 mmHg 74%
12:00 +33°C° 0.2 mm 4 m/S 756 mmHg 69%
13:00 +34°C° 0.2 mm 4 m/S 756 mmHg 64%
14:00 +35°C° 0.2 mm 4 m/S 755 mmHg 60%
15:00 +34°C° 0 mm 4 m/S 755 mmHg 63%
16:00 +33°C° 0 mm 4 m/S 755 mmHg 67%
17:00 +32°C° 0 mm 4 m/S 755 mmHg 71%
18:00 +30°C° 0 mm 3 m/S 755 mmHg 77%
19:00 +29°C° 0 mm 3 m/S 756 mmHg 83%
20:00 +27°C° 0 mm 3 m/S 756 mmHg 89%
21:00 +28°C° 0 mm 3 m/S 757 mmHg 90%
22:00 +28°C° 0 mm 4 m/S 757 mmHg 91%
23:00 +28°C° 0 mm 4 m/S 757 mmHg 91%

übermorgen, 15 August, Samstag

Zeit Temperatur Niederschläge Wind Luftdruck Luftfeuchtigkeit
00:00 +28°C° 0.2 mm 4 m/S 757 mmHg 91%
01:00 +28°C° 0.2 mm 4 m/S 756 mmHg 91%
02:00 +28°C° 0.2 mm 4 m/S 756 mmHg 90%
03:00 +27°C° 0.3 mm 4 m/S 756 mmHg 91%
04:00 +27°C° 0.3 mm 4 m/S 756 mmHg 91%
05:00 +27°C° 0.3 mm 4 m/S 756 mmHg 91%
06:00 +28°C° 0.3 mm 4 m/S 756 mmHg 88%
07:00 +29°C° 0.3 mm 4 m/S 757 mmHg 85%
08:00 +30°C° 0.3 mm 4 m/S 757 mmHg 82%
09:00 +32°C° 0.2 mm 5 m/S 757 mmHg 77%
10:00 +33°C° 0.2 mm 5 m/S 757 mmHg 72%
11:00 +34°C° 0.2 mm 5 m/S 757 mmHg 67%
12:00 +34°C° 0.4 mm 5 m/S 757 mmHg 67%
13:00 +34°C° 0.4 mm 4 m/S 756 mmHg 66%
14:00 +34°C° 0.4 mm 4 m/S 756 mmHg 65%
15:00 +33°C° 0 mm 4 m/S 755 mmHg 67%
16:00 +33°C° 0 mm 4 m/S 755 mmHg 69%
17:00 +32°C° 0 mm 4 m/S 755 mmHg 71%
18:00 +30°C° 0 mm 4 m/S 755 mmHg 76%
19:00 +29°C° 0 mm 4 m/S 756 mmHg 81%
20:00 +28°C° 0 mm 3 m/S 756 mmHg 86%
21:00 +28°C° 0 mm 4 m/S 757 mmHg 85%
22:00 +28°C° 0 mm 4 m/S 757 mmHg 85%
23:00 +28°C° 0 mm 4 m/S 757 mmHg 85%

16 August, Sonntag

Zeit Temperatur Niederschläge Wind Luftdruck Luftfeuchtigkeit
00:00 +28°C° 0.4 mm 4 m/S 757 mmHg 87%
01:00 +27°C° 0.4 mm 3 m/S 756 mmHg 89%
02:00 +27°C° 0.4 mm 3 m/S 756 mmHg 90%
03:00 +27°C° 0.1 mm 3 m/S 756 mmHg 91%
04:00 +27°C° 0.1 mm 3 m/S 756 mmHg 91%
05:00 +27°C° 0.1 mm 3 m/S 756 mmHg 91%
06:00 +28°C° 0.6 mm 2 m/S 756 mmHg 90%
07:00 +29°C° 0.6 mm 2 m/S 757 mmHg 88%
08:00 +30°C° 0.6 mm 2 m/S 757 mmHg 87%
09:00 +31°C° 0.3 mm 2 m/S 757 mmHg 78%
10:00 +32°C° 0.3 mm 2 m/S 757 mmHg 69%
11:00 +34°C° 0.3 mm 2 m/S 757 mmHg 60%
12:00 +34°C° 0.5 mm 2 m/S 756 mmHg 64%
13:00 +34°C° 0.5 mm 2 m/S 756 mmHg 68%
14:00 +33°C° 0.5 mm 3 m/S 755 mmHg 72%
15:00 +33°C° 0.1 mm 3 m/S 755 mmHg 72%
16:00 +31°C° 0.1 mm 3 m/S 755 mmHg 72%
17:00 +31°C° 0.1 mm 3 m/S 755 mmHg 71%
18:00 +30°C° 0 mm 3 m/S 755 mmHg 77%
19:00 +29°C° 0 mm 3 m/S 756 mmHg 82%
20:00 +28°C° 0 mm 2 m/S 756 mmHg 88%
21:00 +27°C° 0.4 mm 2 m/S 756 mmHg 89%
22:00 +27°C° 0.4 mm 2 m/S 757 mmHg 91%
23:00 +27°C° 0.4 mm 2 m/S 757 mmHg 93%

17 August, Montag

Zeit Temperatur Niederschläge Wind Luftdruck Luftfeuchtigkeit
00:00 +27°C° 0.1 mm 2 m/S 756 mmHg 93%
01:00 +27°C° 0.1 mm 2 m/S 756 mmHg 93%
02:00 +27°C° 0.1 mm 2 m/S 755 mmHg 93%
03:00 +27°C° 0.7 mm 2 m/S 755 mmHg 93%
04:00 +27°C° 0.7 mm 2 m/S 755 mmHg 93%
05:00 +27°C° 0.7 mm 2 m/S 756 mmHg 93%
06:00 +28°C° 1 mm 2 m/S 756 mmHg 91%
07:00 +29°C° 1 mm 2 m/S 757 mmHg 89%
08:00 +29°C° 1 mm 2 m/S 757 mmHg 87%
09:00 +30°C° 1.2 mm 2 m/S 757 mmHg 85%
10:00 +31°C° 1.2 mm 3 m/S 757 mmHg 83%
11:00 +31°C° 1.2 mm 3 m/S 757 mmHg 81%
12:00 +31°C° 1.1 mm 3 m/S 756 mmHg 81%
13:00 +31°C° 1.1 mm 3 m/S 756 mmHg 80%
14:00 +31°C° 1.1 mm 3 m/S 755 mmHg 80%
15:00 +31°C° 0.3 mm 3 m/S 755 mmHg 79%
16:00 +31°C° 0.3 mm 3 m/S 755 mmHg 79%
17:00 +30°C° 0.3 mm 3 m/S 754 mmHg 78%
18:00 +29°C° 0.1 mm 3 m/S 755 mmHg 82%
19:00 +28°C° 0.1 mm 3 m/S 756 mmHg 85%
20:00 +28°C° 0.1 mm 3 m/S 756 mmHg 88%
21:00 +27°C° 0.3 mm 3 m/S 756 mmHg 88%
22:00 +27°C° 0.3 mm 3 m/S 757 mmHg 89%
23:00 +27°C° 0.3 mm 3 m/S 757 mmHg 89%

18 August, Dienstag

Zeit Temperatur Niederschläge Wind Luftdruck Luftfeuchtigkeit
00:00 +27°C° 0.7 mm 3 m/S 756 mmHg 90%
01:00 +27°C° 0.7 mm 3 m/S 756 mmHg 90%
02:00 +27°C° 0.7 mm 3 m/S 755 mmHg 91%
03:00 +26°C° 0.2 mm 3 m/S 755 mmHg 91%
04:00 +26°C° 0.2 mm 2 m/S 755 mmHg 91%
05:00 +26°C° 0.2 mm 2 m/S 755 mmHg 90%
06:00 +26°C° 0 mm 2 m/S 756 mmHg 89%
07:00 +27°C° 0 mm 2 m/S 756 mmHg 87%
08:00 +27°C° 0 mm 2 m/S 757 mmHg 85%
09:00 +29°C° 0.1 mm 3 m/S 757 mmHg 78%
10:00 +30°C° 0.1 mm 3 m/S 757 mmHg 71%
11:00 +33°C° 0.1 mm 3 m/S 758 mmHg 64%
12:00 +33°C° 0.1 mm 4 m/S 757 mmHg 64%
13:00 +33°C° 0.1 mm 4 m/S 756 mmHg 63%
14:00 +33°C° 0.1 mm 4 m/S 756 mmHg 62%
15:00 +32°C° 0 mm 4 m/S 756 mmHg 67%
16:00 +32°C° 0 mm 4 m/S 755 mmHg 72%
17:00 +30°C° 0 mm 4 m/S 755 mmHg 76%
18:00 +29°C° 0 mm 4 m/S 755 mmHg 80%
19:00 +29°C° 0 mm 3 m/S 756 mmHg 83%
20:00 +28°C° 0 mm 3 m/S 756 mmHg 86%
21:00 +28°C° 0 mm 3 m/S 756 mmHg 87%
22:00 +28°C° 0 mm 3 m/S 757 mmHg 88%
23:00 +27°C° 0 mm 4 m/S 757 mmHg 88%
Mehr zeigen